Weather History for La Mesa, Honduras

Change the Weather History Date:

Saturday, August 17, 2013

  Actual Average Record
Temperature  
Mean Temperature 82 °F -  
Max Temperature 91 °F 90 °F 95 °F (2010)
Min Temperature 74 °F 73 °F 68 °F (2005)
Cooling Degree Days 18    
Growing Degree Days 32 (Base 50)    
Moisture  
Dew Point 77 °F    
Average Humidity 85    
Maximum Humidity 100    
Minimum Humidity 59    
Precipitation  
Precipitation 0.00 in 0.17 in - ()
Sea Level Pressure  
Sea Level Pressure 29.88 in    
Wind  
Wind Speed 3 mph ()    
Max Wind Speed 14 mph    
Max Gust Speed -    
Visibility 6.7 miles    
Events      
Averages and records for this station are not official NWS values.
T = Trace of Precipitation, MM = Missing Value Source: Averaged Metar Reports

Daily Weather History Graph

Daily Weather History Graph

Search for Another Location

Airport:

Trip Planner

Search our weather history database for the weather conditions in past years. The results will help you decide how hot, cold, wet, or windy it might be!

Date:

Astronomy

Aug. 17, 2013 Rise Set
Actual Time 5:37 AM CST 6:13 PM CST
Civil Twilight 5:15 AM CST 6:36 PM CST
Nautical Twilight 4:49 AM CST 7:02 PM CST
Astronomical Twilight 4:22 AM CST 7:28 PM CST
Moon 3:14 PM CST (8/17) 1:57 AM CST (8/17)
Length of Visible Light 13h 21m
Length of Day
12h 36m
Waxing Gibbous, 85% of the Moon is Illuminated
Aug 17
Waxing Gibbous
Aug 20
Full
Aug 28
Last Quarter
Sep 5
New
Sep 12
First Quarter

Hourly Weather History & Observations

Time (CST) Temp. Heat Index Dew Point Humidity Pressure Visibility Wind Dir Wind Speed Gust Speed Precip Events Conditions
12:00 AM 77 °F - 77 °F 98% 29.91 in 9 mi SSW 2.3 mph - -   Haze
12:00 AM 77.0 °F - 77.0 °F 100% 29.92 in 6.2 mi SSW 2.3 mph - N/A   Scattered Clouds
1:00 AM 77.0 °F - 77.0 °F 100% 29.89 in 6.2 mi SSE 2.3 mph - N/A   Mostly Cloudy
2:00 AM 77.0 °F - 77.0 °F 100% 29.86 in 6.2 mi Calm Calm - N/A   Mostly Cloudy
3:00 AM 76 °F - 76 °F 99% 29.87 in 7 mi Calm Calm - -   Haze
3:00 AM 75.2 °F - 75.2 °F 100% 29.86 in 6.2 mi Calm Calm - N/A   Scattered Clouds
4:00 AM 75.2 °F - 75.2 °F 100% 29.89 in 6.2 mi North 2.3 mph - N/A   Scattered Clouds
5:00 AM 75.2 °F - 75.2 °F 100% 29.89 in 6.2 mi SE 2.3 mph - N/A   Scattered Clouds
6:00 AM 74 °F - 74 °F 100% 29.89 in 9 mi Calm Calm - -   Haze
6:00 AM 75.2 °F - 75.2 °F 100% 29.89 in 6.2 mi Calm Calm - N/A   Scattered Clouds
7:00 AM 77.0 °F - 75.2 °F 94% 29.92 in 6.2 mi Calm Calm - N/A   Mostly Cloudy
8:00 AM 80.6 °F 88.1 °F 78.8 °F 94% 29.92 in 6.2 mi Calm Calm - N/A   Mostly Cloudy
9:00 AM 85 °F - 80 °F 81% 29.92 in 9 mi Calm Calm - -   Haze
9:00 AM 84.2 °F 98.3 °F 80.6 °F 89% 29.92 in 6.2 mi Calm Calm - N/A   Scattered Clouds
10:00 AM 86.0 °F 99.3 °F 78.8 °F 79% 29.92 in 6.2 mi Calm Calm - N/A   Scattered Clouds
11:00 AM 89.6 °F 104.7 °F 78.8 °F 70% 29.89 in 6.2 mi NE 4.6 mph - N/A   Scattered Clouds
12:00 PM 90 °F - 80 °F 66% 29.89 in 9 mi ENE 4.6 mph - -   Haze
12:00 PM 89.6 °F 108.2 °F 80.6 °F 75% 29.89 in 6.2 mi NNE 4.6 mph - N/A   Scattered Clouds
1:00 PM 91.4 °F 105.1 °F 77.0 °F 63% 29.86 in 6.2 mi NE 4.6 mph - N/A   Scattered Clouds
2:00 PM 91.4 °F 102.5 °F 75.2 °F 59% 29.83 in 6.2 mi North 9.2 mph - N/A   Scattered Clouds
3:00 PM 91.4 °F 105.1 °F 77.0 °F 63% 29.80 in 6.2 mi NNE 11.5 mph - N/A   Scattered Clouds
4:00 PM 89.6 °F 104.7 °F 78.8 °F 70% 29.80 in 6.2 mi NNE 13.8 mph - N/A   Mostly Cloudy
5:00 PM 87.8 °F 97.6 °F 75.2 °F 66% 29.83 in 6.2 mi NNE 11.5 mph - N/A   Mostly Cloudy
6:00 PM 86 °F - 74 °F 59% 29.85 in 9 mi NNE 11.5 mph - -   Haze
6:00 PM 86.0 °F 93.4 °F 73.4 °F 66% 29.86 in 6.2 mi NNE 11.5 mph - N/A   Scattered Clouds
7:00 PM 82.4 °F 90.9 °F 77.0 °F 84% 29.86 in 6.2 mi NNW 5.8 mph - N/A   Scattered Clouds
8:00 PM 80.6 °F 87.1 °F 77.0 °F 89% 29.89 in 6.2 mi NNW 6.9 mph - N/A   Scattered Clouds
9:00 PM 81 °F - 77 °F 85% 29.91 in 6 mi North 6.9 mph - -   Haze
9:00 PM 80.6 °F 87.1 °F 77.0 °F 89% 29.92 in 6.2 mi North 6.9 mph - N/A   Scattered Clouds
10:00 PM 80.6 °F 88.1 °F 78.8 °F 94% 29.92 in 6.2 mi North 4.6 mph - N/A   Scattered Clouds
11:00 PM 78.8 °F - 78.8 °F 100% 29.92 in 6.2 mi Calm Calm - N/A   Scattered Clouds